Location: Cañada de la Miga
(34.7595°N, 106.2317°W)
Time: 00:13:36
(UTC+00:00)

Altair - Visible Passes

Search period start: 28 November 2021 00:00
Search period end: 08 December 2021 00:00
Orbit: 1502 x 1682 km, 47.2° (Epoch: 27 November)

Date Brightness Start Highest point End Pass type
(mag) Time Alt. Az. Time Alt. Az. Time Alt. Az.
28 Nov 7.6 00:03:26 10° WSW 00:12:57 82° NW 00:22:13 10° NE visible
28 Nov 8.1 02:10:01 10° W 02:18:40 41° NNW 02:21:25 34° NNE visible
28 Nov 9.2 04:16:41 10° NW 04:19:26 21° NW 04:19:26 21° NW visible
29 Nov 8.1 01:44:38 10° W 01:53:22 42° NNW 01:57:36 28° NE visible
29 Nov 8.8 03:51:26 10° WNW 03:55:37 27° NW 03:55:37 27° NW visible
30 Nov 8.1 01:19:15 10° W 01:28:05 44° NNW 01:33:47 22° NE visible
30 Nov 8.5 03:26:09 10° WNW 03:31:47 33° NNW 03:31:47 33° NNW visible
01 Dec 8.1 00:53:52 10° W 01:02:48 45° NNW 01:09:57 16° NE visible
01 Dec 8.2 03:00:52 10° WNW 03:07:58 37° NNW 03:07:58 37° NNW visible
02 Dec 8.0 00:28:30 10° W 00:37:31 47° NNW 00:46:08 11° NE visible
02 Dec 8.0 02:35:34 10° WNW 02:44:05 38° N 02:44:09 38° N visible
02 Dec 9.5 04:40:58 10° NW 04:42:10 15° NW 04:42:10 15° NW visible
03 Dec 8.0 02:10:15 10° WNW 02:18:46 38° N 02:20:20 36° NNE visible
03 Dec 9.1 04:15:47 10° NW 04:18:21 21° NW 04:18:21 21° NW visible
04 Dec 8.1 01:44:55 10° WNW 01:53:27 38° N 01:56:33 30° NE visible
04 Dec 8.7 03:50:36 10° NW 03:54:34 28° NW 03:54:34 28° NW visible
05 Dec 8.1 01:19:35 10° WNW 01:28:07 38° N 01:32:46 24° NE visible
05 Dec 8.3 03:25:24 10° NW 03:30:48 37° NNW 03:30:48 37° NNW visible
06 Dec 8.2 00:54:13 10° WNW 01:02:48 38° N 01:09:01 18° ENE visible
06 Dec 7.9 03:00:12 10° NW 03:07:03 46° NNW 03:07:03 46° NNW visible
07 Dec 8.2 00:28:51 10° WNW 00:37:28 38° N 00:45:20 12° ENE visible
07 Dec 7.7 02:34:58 10° NW 02:43:21 50° N 02:43:21 50° N visible
07 Dec 9.4 04:39:52 10° WNW 04:41:23 16° WNW 04:41:23 16° WNW visible
